STARLINK-1310 (45378 NORAD) Tracking and Keplerian Element Data

This shows tracking and keplerian element data for the satellite.

Feedback or suggestion? Click here.




ElementValue
Catalog45378
NameSTARLINK-1310
Epoch Orbit1727
Epoch Day187.50002315
Epoch Year2020
RAAN113.5223
Inclination53.0014
Eccentricity0.0001731
Argument of Perigee83.0599
Mean Anonmoly306.6735
Mean Motion15.05603946
Decay Rate-0.00029034
L11 45378U 20019U 20187.50002315 -.00029034 00000-0 -19803-2 0 9996
L22 45378 53.0014 113.5223 0001731 83.0599 306.6735 15.05603946 17271

Live tracking and technical data element details for STARLINK-1310 (NORAD 45378). STARLINK-1310 can be tracked NOW for your location showing map with azimuth and elevation plus other details from your city location.

Track the satellite on the map from your city or location and see movement details for azimuth, elevation, latitude, longitude, range, height, and movement on the map or in text.







IsCatalogInMostPopularTable: catalog: 45378, numindb: 23
Update: records affected: 1



GetName: 45378 STARLINK-1310

Hit Count: updated at: Mon, 06 Jul 2020 06:43:14 GMT